Regional Weather Roundup
Issued by NWS

Home | Current Version | Previous Version | Graphics & Text | Print | Product List | Glossary On
Versions: 1 2 3 4 5 6 7 8 9 10 11 12 13 14 15 16 17 18 19 20 21 22 23 24 25 26 27 28 29 30 31 32 33 34 35 36 37 38 39 40 41 42 43 44 45 46 47 48 49 50
000
ASUS44 KMEG 221500
RWRTN
TENNESSEE HOURLY STATE WEATHER ROUNDUP
NATIONAL WEATHER SERVICE MEMPHIS TN
1000 AM CDT WED MAR 22 2017

TNZ002-004-019-021-049-052-054-088>092-221600-
WEST TENNESSEE

CITY           SKY/WX    TMP DP  RH WIND       PRES   REMARKS
MEMPHIS INTL   CLOUDY    48  44  84 NE10        N/A
NWS MEMPHIS      N/A     49 N/A N/A MISG        N/A
JACKSON        CLOUDY    50  39  66 NE17      30.31R
DYERSBURG      PTSUNNY   51  38  60 NE18      30.33S
PARIS          SUNNY     45  27  49 NE16      30.35R
$$

TNZ008-025-027-028-033-062-065-066-221600-
NORTH MIDDLE TENNESSEE

CITY           SKY/WX    TMP DP  RH WIND       PRES   REMARKS
NASHVILLE      PTSUNNY   50  28  42 NE17      30.34R
CLARKSVILLE    MOSUNNY   46  25  43 NE14G21   30.37R
SMYRNA         MOSUNNY   49  28  44 N16       30.33R
CROSSVILLE     SUNNY     44  24  45 N15       30.27R
$$

TNZ061-075-076-078-094-096-097-221600-
SOUTH MIDDLE TENNESSEE

CITY           SKY/WX    TMP DP  RH WIND       PRES   REMARKS
TULLAHOMA      SUNNY     48  28  46 N17       30.26R
WINCHESTER     SUNNY     50  36  57 N9        30.26R
MCMINNVILLE    SUNNY     48  32  53 NE14      30.28R
COLUMBIA       SUNNY     50  30  46 N13       30.29R
SHELBYVILLE    SUNNY     50  36  57 N12       30.29R
$$

TNZ017-018-042-046-047-221600-
NORTHEAST TENNESSEE

CITY           SKY/WX    TMP DP  RH WIND       PRES   REMARKS
TRI CITIES     PTSUNNY   48  25  40 N9        30.26R
$$

TNZ012-013-036-069-073-074-221600-
CENTRAL EAST TENNESSEE

CITY           SKY/WX    TMP DP  RH WIND       PRES   REMARKS
KNOXVILLE      PTSUNNY   52  31  44 N10       30.25R
OAK RIDGE      SUNNY     51  21  30 VRB6      30.29R
GATLINBURG     SUNNY     52  32  46 E8        30.24S
$$

TNZ083-085-099-221600-
SOUTHEAST TENNESSEE

CITY           SKY/WX    TMP DP  RH WIND       PRES   REMARKS
CHATTANOOGA    CLOUDY    53  35  50 N18       30.23R
$$

SKY/WX REPORTED AS FAIR MEANS FEW OR NO CLOUDS BELOW
12 THOUSAND FEET.





USA.gov is the U.S. government's official web portal to all federal, state and local government web resources and services.